Concord, NC

1:33 PM EDT on August 19, 2017 (GMT -0400)
Concord Regional

Weather History for KJQF - March, 2013

Change the Weather History Date:

Tuesday, March 5, 2013

  Actual Average (KCLT) Record (KCLT)
Temperature  
Mean Temperature 42 °F -  
Max Temperature 50 °F 62 °F 84 °F (1955)
Min Temperature 33 °F 40 °F 12 °F (1960)
Degree Days  
Heating Degree Days 24    
Moisture  
Dew Point 35 °F    
Average Humidity 75    
Maximum Humidity 93    
Minimum Humidity 49    
Precipitation  
Precipitation 0.18 in - - ()
Sea Level Pressure  
Sea Level Pressure 29.92 in    
Wind  
Wind Speed 1 mph (NW)    
Max Wind Speed 14 mph    
Max Gust Speed 23 mph    
Visibility 8 miles    
Events Rain    
Averages and records for this station are not official NWS values.
T = Trace of Precipitation, MM = Missing Value Source: NWS Daily Summary

Daily Weather History Graph

Daily Weather History Graph

Search for Another Location

Airport or City:

Trip Planner

Search our weather history database for the weather conditions in past years. The results will help you decide how hot, cold, wet, or windy it might be!

Date:

Astronomy

Mar. 05, 2013 Rise Set
Actual Time 6:46 AM EST 6:22 PM EST
Civil Twilight 6:21 AM EST 6:47 PM EST
Nautical Twilight 5:52 AM EST 7:16 PM EST
Astronomical Twilight 5:22 AM EST 7:46 PM EST
Moon 1:48 AM EST (3/5) 12:09 PM EST (3/5)
Length of Visible Light 12h 25m
Length of Day
11h 35m
Last Quarter, 41% of the Moon is Illuminated
Mar 5
Last Quarter
Mar 11
New
Mar 19
First Quarter
Mar 27
Full
Apr 3
Last Quarter

Hourly Weather History & Observations

Time (EST) Temp. Windchill Dew Point Humidity Pressure Visibility Wind Dir Wind Speed Gust Speed Precip Events Conditions
12:15 AM 41.0 °F - 26.6 °F 57% 30.08 in 10.0 mi Calm Calm - N/A   Scattered Clouds
12:35 AM 41.0 °F - 26.6 °F 57% 30.08 in 10.0 mi Calm Calm - N/A   Scattered Clouds
12:55 AM 41.0 °F - 26.6 °F 57% 30.08 in 10.0 mi Calm Calm - N/A   Scattered Clouds
1:15 AM 41.0 °F - 28.4 °F 61% 30.09 in 10.0 mi Calm Calm - N/A   Mostly Cloudy
1:35 AM 37.4 °F - 28.4 °F 70% 30.09 in 10.0 mi Calm Calm - N/A   Scattered Clouds
1:55 AM 39.2 °F - 28.4 °F 65% 30.09 in 10.0 mi Calm Calm - N/A   Scattered Clouds
2:15 AM 37.4 °F - 28.4 °F 70% 30.09 in 10.0 mi Calm Calm - N/A   Scattered Clouds
2:35 AM 37.4 °F - 28.4 °F 70% 30.09 in 10.0 mi Calm Calm - N/A   Clear
2:55 AM 35.6 °F - 28.4 °F 75% 30.08 in 10.0 mi Calm Calm - N/A   Clear
3:15 AM 35.6 °F - 26.6 °F 70% 30.08 in 10.0 mi Calm Calm - N/A   Clear
3:35 AM 33.8 °F - 26.6 °F 75% 30.07 in 10.0 mi Calm Calm - N/A   Clear
3:55 AM 33.8 °F - 26.6 °F 75% 30.07 in 10.0 mi Calm Calm - N/A   Clear
4:15 AM 37.4 °F - 26.6 °F 65% 30.06 in 10.0 mi Calm Calm - N/A   Clear
4:35 AM 39.2 °F - 26.6 °F 61% 30.06 in 10.0 mi Calm Calm - N/A   Clear
4:55 AM 39.2 °F - 26.6 °F 61% 30.06 in 10.0 mi Calm Calm - N/A   Clear
5:15 AM 41.0 °F - 26.6 °F 57% 30.06 in 10.0 mi Calm Calm - N/A   Clear
5:35 AM 41.0 °F - 28.4 °F 61% 30.06 in 10.0 mi Calm Calm - N/A   Scattered Clouds
5:55 AM 41.0 °F - 28.4 °F 61% 30.05 in 10.0 mi Calm Calm - N/A   Clear
6:15 AM 42.8 °F - 28.4 °F 57% 30.06 in 10.0 mi Calm Calm - N/A   Clear
6:35 AM 42.8 °F - 26.6 °F 53% 30.05 in 10.0 mi Calm Calm - N/A   Clear
6:55 AM 44.6 °F - 26.6 °F 49% 30.05 in 10.0 mi Calm Calm - N/A   Scattered Clouds
7:55 AM 46.4 °F - 28.4 °F 50% 30.04 in 10.0 mi Calm Calm - N/A   Overcast
8:55 AM 46.4 °F - 28.4 °F 50% 30.04 in 7.0 mi Calm Calm - N/A   Overcast
9:55 AM 48.2 °F - 32.0 °F 54% 30.02 in 7.0 mi Calm Calm - N/A   Overcast
10:55 AM 46.4 °F - 39.2 °F 76% 30.03 in 4.0 mi Calm Calm - N/A Rain Rain
11:55 AM 44.6 °F - 42.8 °F 93% 30.00 in 4.0 mi Calm Calm - N/A Rain Rain
12:55 PM 44.6 °F - 42.8 °F 93% 29.96 in 7.0 mi Calm Calm - N/A   Overcast
1:55 PM 46.4 °F - 42.8 °F 87% 29.92 in 7.0 mi Calm Calm - N/A   Overcast
2:55 PM 48.2 °F - 42.8 °F 82% 29.89 in 7.0 mi Calm Calm - N/A   Overcast
3:55 PM 48.2 °F - 42.8 °F 82% 29.87 in 7.0 mi Calm Calm - N/A   Overcast
4:55 PM 50.0 °F - 44.6 °F 82% 29.81 in 10.0 mi Calm Calm - N/A   Mostly Cloudy
5:55 PM 48.2 °F - 44.6 °F 87% 29.77 in 10.0 mi Calm Calm - N/A   Mostly Cloudy
6:55 PM 48.2 °F - 44.6 °F 87% 29.71 in 10.0 mi Calm Calm - N/A   Overcast
7:55 PM 46.4 °F 43.5 °F 44.6 °F 93% 29.66 in 5.0 mi SE 5.8 mph - N/A Rain Rain
8:15 PM 46.4 °F 40.4 °F 44.6 °F 93% 29.69 in 3.0 mi NW 13.8 mph 23.0 mph 0.08 in   Overcast
8:35 PM 46.4 °F 42.4 °F 44.6 °F 93% 29.68 in 7.0 mi North 8.1 mph - 0.18 in   Overcast
8:55 PM 44.6 °F 41.4 °F 42.8 °F 93% 29.65 in 7.0 mi NE 5.8 mph - 0.18 in   Mostly Cloudy
9:15 PM 44.6 °F 41.4 °F 42.8 °F 93% 29.66 in 7.0 mi WNW 5.8 mph - N/A   Mostly Cloudy
9:35 PM 44.6 °F 40.2 °F 42.8 °F 93% 29.68 in 5.0 mi WNW 8.1 mph - N/A   Overcast
9:55 PM 44.6 °F 41.4 °F 42.8 °F 93% 29.67 in 7.0 mi NNW 5.8 mph - N/A   Overcast
10:15 PM 44.6 °F - 42.8 °F 93% 29.66 in 7.0 mi Calm Calm - N/A   Overcast
10:35 PM 44.6 °F - 42.8 °F 93% 29.65 in 7.0 mi Calm Calm - N/A   Overcast
10:55 PM 44.6 °F - 42.8 °F 93% 29.64 in 5.0 mi Calm Calm - N/A   Overcast
11:15 PM 44.6 °F - 42.8 °F 93% 29.64 in 5.0 mi Calm Calm - N/A   Overcast
11:35 PM 44.6 °F 43.1 °F 42.8 °F 93% 29.63 in 5.0 mi West 3.5 mph - N/A   Overcast
11:55 PM 42.8 °F 38.6 °F 41.0 °F 93% 29.65 in 5.0 mi WNW 6.9 mph 18.4 mph N/A   Overcast